Regional Weather Roundup
Issued by NWS

Home | Current Version | Previous Version | Graphics & Text | Print | Product List | Glossary Off
Versions: 1 2 3 4 5 6 7 8 9 10 11 12 13 14 15 16 17 18 19 20 21 22 23 24 25 26 27 28 29 30 31 32 33 34 35 36 37 38 39 40 41 42 43 44 45 46 47 48 49 50

115
ASUS43 KFSD 041202
RWRSD

WEATHER ROUNDUP FOR SOUTH DAKOTA
NATIONAL WEATHER SERVICE SIOUX FALLS SD
700 AM CDT WED MAY 04 2016

NOTE: "FAIR" INDICATES FEW OR NO CLOUDS BELOW 12,000 FEET WITH NO
SIGNIFICANT WEATHER AND/OR OBSTRUCTIONS TO VISIBILITY.


SDZ001>005-009-010-012>017-041300-
NORTHWEST AND NORTH CENTRAL SOUTH DAKOTA

CITY           SKY/WX    TMP DP  RH WIND       PRES   REMARKS
BUFFALO          N/A     51  36  56 S3        30.07S
FAITH            N/A     42  33  70 S10       30.13R
MOBRIDGE       CLEAR     38  35  89 N6        30.10R
$$

SDZ012>016-024>037-041>051-057-063-072>074-041300-
SOUTHWEST AND SOUTH CENTRAL SOUTH DAKOTA

CITY           SKY/WX    TMP DP  RH WIND       PRES   REMARKS
RAPID CTY ARPT CLEAR     42  35  76 NW7       30.15R
PIERRE         CLEAR     37  31  78 NW7       30.12R
CUSTER         CLEAR     41  30  65 NW7       30.23R
ELLSWORTH AFB  CLEAR     47  36  65 SW3       30.14R
PHILIP         CLEAR     37  35  92 W5        30.13R
PINE RIDGE     CLEAR     35  32  88 CALM      30.16R
WINNER         FAIR      41  35  79 W3        30.12R
$$

SDZ004>011-016>023-039-040-041300-
NORTHEAST SOUTH DAKOTA

CITY           SKY/WX    TMP DP  RH WIND       PRES   REMARKS
ABERDEEN       CLEAR     40  33  76 NW9       30.10R
WATERTOWN      CLEAR     40  31  70 NW7       30.05R
SISSETON         N/A     41  32  70 NW7       30.05R
$$

SDZ017-020-022-023-036>040-048>070-041300-
SOUTHEAST SOUTH DAKOTA

CITY           SKY/WX    TMP DP  RH WIND       PRES   REMARKS
SIOUX FALLS    CLEAR     43  33  68 N8        30.04R
HURON          CLEAR     36  33  89 NW5       30.09R
MITCHELL       CLEAR     41  36  82 NW9       30.09R
YANKTON        CLEAR     41  36  81 NW10      30.06R
$$

ABBREVIATIONS USED IN REMARKS
   TC - TEMPERATURE IN CELSIUS
  WCI - WIND CHILL INDEX
   HX - HEAT INDEX
  VSB - VISIBILITY





USA.gov is the U.S. government's official web portal to all federal, state and local government web resources and services.